AAY1073 KJQF-KPIE

Flight info

Callsign AAY1073
Flight time N/A
Altitude 36000
Route BEAVY6 JENDO MAVRC TEUFL BAAMF DADES2
Aircraft A320/M-SDE3FGHIRWY/LB1

Departure

Time N/A
Airport Concord-Padgett Regional Airport (KJQF)

Arrival

Time 2026-05-08 23:47
Airport St. Petersburg Clearwater International Airport (KPIE)
Time Latitude Longitude Altitude Speed Heading
2026-05-08 23:06 30.12252 -82.37706 36075 ft 446 kts 188°
2026-05-08 23:07 30.06039 -82.37352 36083 ft 447 kts 188°
2026-05-08 23:07 29.99822 -82.36994 36076 ft 448 kts 188°
2026-05-08 23:08 29.93597 -82.36641 36055 ft 448 kts 188°
2026-05-08 23:08 29.87419 -82.36299 36007 ft 448 kts 188°
2026-05-08 23:09 29.81191 -82.35957 35999 ft 448 kts 188°
2026-05-08 23:09 29.74955 -82.35615 35995 ft 449 kts 188°
2026-05-08 23:10 29.68708 -82.35265 36002 ft 449 kts 188°
2026-05-08 23:10 29.62503 -82.34916 36007 ft 450 kts 188°
2026-05-08 23:11 29.56247 -82.34571 35983 ft 451 kts 188°
2026-05-08 23:11 29.49968 -82.34230 36006 ft 452 kts 188°
2026-05-08 23:12 29.43681 -82.33883 35990 ft 453 kts 188°
2026-05-08 23:12 29.37377 -82.33463 35987 ft 456 kts 186°
2026-05-08 23:13 29.31086 -82.32709 35948 ft 459 kts 184°
2026-05-08 23:13 29.24735 -82.31837 35961 ft 460 kts 184°
2026-05-08 23:14 29.21549 -82.31425 35662 ft 462 kts 184°
2026-05-08 23:14 29.18348 -82.31032 34266 ft 467 kts 184°
2026-05-08 23:14 29.15085 -82.30656 32614 ft 474 kts 184°
2026-05-08 23:14 29.11811 -82.30285 31512 ft 469 kts 183°
2026-05-08 23:15 29.08650 -82.29913 30879 ft 453 kts 183°
2026-05-08 23:15 29.05572 -82.29535 30256 ft 439 kts 183°
2026-05-08 23:15 29.02581 -82.29166 29552 ft 425 kts 182°
2026-05-08 23:15 28.99692 -82.28813 28982 ft 411 kts 183°
2026-05-08 23:16 28.96855 -82.28474 28403 ft 409 kts 183°
2026-05-08 23:16 28.94031 -82.28148 27830 ft 406 kts 183°
2026-05-08 23:16 28.91234 -82.27828 27261 ft 403 kts 183°
2026-05-08 23:16 28.88457 -82.27505 26685 ft 399 kts 183°
2026-05-08 23:17 28.85707 -82.27179 26134 ft 396 kts 183°
2026-05-08 23:17 28.82969 -82.26851 25583 ft 396 kts 182°
2026-05-08 23:17 28.80269 -82.26531 25080 ft 395 kts 182°
2026-05-08 23:17 28.77542 -82.26210 24543 ft 393 kts 182°
2026-05-08 23:18 28.74828 -82.25894 24048 ft 391 kts 183°
2026-05-08 23:18 28.72146 -82.25769 23549 ft 382 kts 187°
2026-05-08 23:18 28.69500 -82.25744 23049 ft 379 kts 187°
2026-05-08 23:18 28.66879 -82.25706 22591 ft 374 kts 187°
2026-05-08 23:19 28.64289 -82.25660 22155 ft 371 kts 187°
2026-05-08 23:19 28.61662 -82.25616 21725 ft 384 kts 187°
2026-05-08 23:19 28.59023 -82.25565 21258 ft 374 kts 186°
2026-05-08 23:19 28.56489 -82.25507 20843 ft 364 kts 186°
2026-05-08 23:20 28.53990 -82.25447 20420 ft 355 kts 186°
2026-05-08 23:20 28.51505 -82.25398 20062 ft 365 kts 186°
2026-05-08 23:20 28.48928 -82.25375 19970 ft 374 kts 187°
2026-05-08 23:20 28.46316 -82.25358 19990 ft 377 kts 186°
2026-05-08 23:21 28.43691 -82.25333 19977 ft 378 kts 186°
2026-05-08 23:21 28.41057 -82.25300 19991 ft 379 kts 186°
2026-05-08 23:21 28.38422 -82.25261 19985 ft 379 kts 186°
2026-05-08 23:21 28.35781 -82.25221 19710 ft 379 kts 186°
2026-05-08 23:22 28.33121 -82.25211 18643 ft 386 kts 186°
2026-05-08 23:22 28.30460 -82.25226 17770 ft 388 kts 185°
2026-05-08 23:22 28.27767 -82.25091 16983 ft 387 kts 181°
2026-05-08 23:22 28.25097 -82.24801 16300 ft 383 kts 178°
2026-05-08 23:23 28.22500 -82.24424 16054 ft 369 kts 177°
2026-05-08 23:23 28.19988 -82.24029 15971 ft 362 kts 177°
2026-05-08 23:23 28.17496 -82.23655 15993 ft 361 kts 178°
2026-05-08 23:23 28.15004 -82.23303 15989 ft 360 kts 178°
2026-05-08 23:24 28.12512 -82.22971 15930 ft 361 kts 178°
2026-05-08 23:24 28.10003 -82.22650 14987 ft 367 kts 178°
2026-05-08 23:24 28.07449 -82.22334 14073 ft 370 kts 177°
2026-05-08 23:24 28.04897 -82.22014 13260 ft 367 kts 176°
2026-05-08 23:25 28.02372 -82.21695 12469 ft 363 kts 176°
2026-05-08 23:25 27.99890 -82.21377 11918 ft 352 kts 176°
2026-05-08 23:25 27.97551 -82.21073 11598 ft 336 kts 176°
2026-05-08 23:25 27.95251 -82.20780 10992 ft 331 kts 176°
2026-05-08 23:26 27.92978 -82.20496 10370 ft 327 kts 176°
2026-05-08 23:26 27.90733 -82.20216 9862 ft 319 kts 175°
2026-05-08 23:26 27.88599 -82.19943 9744 ft 298 kts 175°
2026-05-08 23:26 27.86587 -82.19687 9601 ft 287 kts 175°
2026-05-08 23:27 27.84627 -82.19466 9156 ft 280 kts 180°
2026-05-08 23:27 27.82757 -82.19894 8490 ft 275 kts 207°
2026-05-08 23:27 27.81296 -82.21258 7933 ft 276 kts 234°
2026-05-08 23:27 27.80563 -82.23246 7461 ft 278 kts 259°
2026-05-08 23:28 27.80317 -82.25390 7021 ft 280 kts 263°
2026-05-08 23:28 27.80123 -82.27589 6573 ft 282 kts 264°
2026-05-08 23:28 27.79924 -82.29800 6127 ft 283 kts 264°
2026-05-08 23:28 27.79718 -82.32005 5708 ft 282 kts 264°
2026-05-08 23:29 27.79512 -82.34203 5333 ft 280 kts 264°
2026-05-08 23:29 27.79308 -82.36380 4945 ft 279 kts 264°
2026-05-08 23:29 27.79103 -82.38553 4515 ft 278 kts 263°
2026-05-08 23:29 27.78897 -82.40712 4107 ft 276 kts 263°
2026-05-08 23:30 27.78700 -82.42872 3687 ft 276 kts 264°
2026-05-08 23:30 27.78512 -82.45028 3306 ft 274 kts 264°
2026-05-08 23:30 27.78326 -82.47131 3021 ft 271 kts 264°
2026-05-08 23:30 27.78132 -82.49238 2992 ft 264 kts 264°
2026-05-08 23:31 27.77945 -82.51227 2994 ft 246 kts 264°
2026-05-08 23:31 27.77768 -82.53120 2998 ft 242 kts 264°
2026-05-08 23:31 27.77593 -82.55002 2991 ft 241 kts 264°
2026-05-08 23:31 27.77418 -82.56886 2990 ft 242 kts 264°
2026-05-08 23:32 27.77246 -82.58760 2986 ft 233 kts 264°
2026-05-08 23:32 27.77083 -82.60531 2986 ft 221 kts 264°
2026-05-08 23:32 27.76931 -82.62232 2987 ft 217 kts 267°
2026-05-08 23:32 27.77238 -82.63867 2987 ft 215 kts 302°
2026-05-08 23:33 27.78219 -82.65082 3019 ft 212 kts 321°
2026-05-08 23:33 27.79379 -82.66124 3002 ft 214 kts 323°
2026-05-08 23:33 27.80605 -82.67071 2719 ft 214 kts 334°
2026-05-08 23:33 27.82018 -82.67548 2312 ft 210 kts 351°
2026-05-08 23:34 27.83427 -82.67739 2108 ft 199 kts 355°
2026-05-08 23:34 27.84763 -82.67855 1976 ft 186 kts 354°
2026-05-08 23:34 27.85994 -82.67985 1969 ft 170 kts 351°
2026-05-08 23:34 27.87016 -82.68464 1987 ft 153 kts 316°
2026-05-08 23:35 27.87498 -82.69542 2258 ft 169 kts 278°
2026-05-08 23:35 27.87482 -82.70974 2521 ft 194 kts 266°
2026-05-08 23:35 27.87335 -82.72568 2767 ft 211 kts 264°
2026-05-08 23:35 27.87178 -82.74217 2954 ft 217 kts 264°
2026-05-08 23:36 27.87022 -82.75919 3002 ft 219 kts 264°
2026-05-08 23:36 27.86869 -82.77632 3006 ft 220 kts 264°
2026-05-08 23:36 27.86710 -82.79345 3007 ft 218 kts 264°
2026-05-08 23:36 27.86536 -82.81039 3009 ft 217 kts 264°
2026-05-08 23:37 27.86190 -82.82690 3008 ft 217 kts 244°
2026-05-08 23:37 27.85225 -82.83984 3009 ft 218 kts 212°
2026-05-08 23:37 27.83789 -82.84448 3007 ft 215 kts 181°
2026-05-08 23:37 27.82368 -82.84383 3004 ft 202 kts 175°
2026-05-08 23:38 27.80981 -82.84246 3006 ft 199 kts 174°
2026-05-08 23:38 27.79611 -82.84103 3006 ft 197 kts 174°
2026-05-08 23:38 27.78242 -82.83962 3006 ft 198 kts 174°
2026-05-08 23:38 27.76873 -82.83824 3007 ft 197 kts 174°
2026-05-08 23:39 27.75507 -82.83682 2995 ft 197 kts 173°
2026-05-08 23:39 27.74141 -82.83539 2997 ft 197 kts 174°
2026-05-08 23:39 27.72777 -82.83395 2995 ft 197 kts 174°
2026-05-08 23:39 27.71414 -82.83242 2995 ft 197 kts 169°
2026-05-08 23:40 27.70210 -82.82587 2998 ft 194 kts 132°
2026-05-08 23:40 27.69645 -82.81271 2996 ft 191 kts 95°
2026-05-08 23:40 27.69635 -82.79774 2996 ft 191 kts 85°
2026-05-08 23:40 27.69732 -82.78279 2994 ft 191 kts 84°
2026-05-08 23:41 27.69854 -82.76796 2993 ft 188 kts 84°
2026-05-08 23:41 27.69994 -82.75328 2996 ft 189 kts 84°
2026-05-08 23:41 27.70139 -82.73858 2992 ft 189 kts 83°
2026-05-08 23:41 27.70287 -82.72385 2994 ft 189 kts 84°
2026-05-08 23:42 27.70436 -82.70914 2988 ft 188 kts 84°
2026-05-08 23:42 27.70587 -82.69453 2989 ft 188 kts 82°
2026-05-08 23:42 27.71066 -82.68096 2989 ft 189 kts 55°
2026-05-08 23:42 27.71979 -82.67023 2991 ft 191 kts 38°
2026-05-08 23:43 27.73132 -82.66321 2988 ft 192 kts 19°
2026-05-08 23:43 27.74450 -82.66057 2991 ft 194 kts
2026-05-08 23:43 27.75791 -82.66226 2993 ft 195 kts 352°
2026-05-08 23:43 27.77134 -82.66457 2992 ft 195 kts 353°
2026-05-08 23:44 27.78439 -82.66682 2987 ft 179 kts 353°
2026-05-08 23:44 27.79658 -82.66891 2610 ft 179 kts 352°
2026-05-08 23:44 27.80894 -82.67100 2196 ft 179 kts 351°
2026-05-08 23:44 27.82076 -82.67303 2019 ft 164 kts 351°
2026-05-08 23:45 27.83145 -82.67493 1834 ft 149 kts 351°
2026-05-08 23:45 27.84137 -82.67674 1563 ft 141 kts 349°
2026-05-08 23:45 27.85094 -82.67831 1211 ft 138 kts 351°
2026-05-08 23:45 27.86028 -82.67959 971 ft 136 kts 348°
2026-05-08 23:46 27.86952 -82.68135 790 ft 133 kts 348°
2026-05-08 23:46 27.87824 -82.68305 591 ft 136 kts 350°
2026-05-08 23:46 27.88756 -82.68456 355 ft 137 kts 351°
2026-05-08 23:46 27.89701 -82.68605 113 ft 135 kts 348°
2026-05-08 23:47 27.90589 -82.68773 34 ft 119 kts 350°
2026-05-08 23:47 27.91284 -82.68889 20 ft 65 kts 352°
2026-05-08 23:47 27.91549 -82.68937 21 ft 16 kts 339°
2026-05-08 23:47 27.91551 -82.69028 22 ft 12 kts 258°
2026-05-08 23:48 27.91507 -82.69086 24 ft 10 kts 182°
2026-05-08 23:48 27.91442 -82.69077 24 ft 9 kts 173°
2026-05-08 23:48 27.91384 -82.69067 26 ft 8 kts 168°